Regional Weather Roundup
Issued by NWS Glasgow, MT

Home | Current Version | Previous Version | Text Only | Print | Product List | Glossary On
Versions: 1 2 3 4 5 6 7 8 9 10 11 12 13 14 15 16 17 18 19 20 21 22 23 24 25 26 27 28 29 30 31 32 33 34 35 36 37 38 39 40 41 42 43 44 45 46 47 48 49 50
000
ASUS45 KGGW 280815
RWRGGW
HOURLY REGIONAL WEATHER ROUNDUP FOR NORTHEAST MONTANA
NATIONAL WEATHER SERVICE GLASGOW MONTANA
200 AM MDT FRI AUG 28 2015

NOTE: "FAIR" INDICATES FEW OR NO CLOUDS BELOW 12,000 FEET WITH NO
SIGNIFICANT WEATHER AND/OR OBSTRUCTIONS TO VISISBILITY.

NORTHEAST MONTANA


CITY           SKY/WX    TMP DP  RH WIND       PRES   REMARKS
GLASGOW        CLEAR     66  53  63 NW5       29.87S
PLENTYWOOD       N/A     70  53  54 NW6G17      N/A
WOLF POINT     CLEAR     60  55  83 SW5       29.86R
JORDAN           N/A     59  43  55 W3        29.92S
WINNETT          N/A     54  44  69 S2          N/A
SIDNEY         PTCLDY    63  57  82 S10       29.85S
GLENDIVE       PTCLDY    66  55  68 SW7       29.91S
MALTA            N/A     59  52  77 W3          N/A
SCOBEY           N/A     57  46  66 CALM      29.87F

FORT PECK REPORTS


CITY           SKY/WX    TMP DP  RH WIND       PRES   REMARKS
FORT PECK        N/A     69  62  78 S3          N/A
THE PINES        N/A     69  54  58 S3          N/A

SOUTHEAST MONTANA


CITY           SKY/WX    TMP DP  RH WIND       PRES   REMARKS
BILLINGS       PTCLDY    70  44  39 W18       30.06R
MILES CITY     MOCLDY    70  46  42 W8        29.94R
BAKER          MOCLDY    61  56  83 CALM      29.95S
LIVINGSTON     PTCLDY    69  42  37 W23G30    30.14R

CENTRAL MONTANA


CITY           SKY/WX    TMP DP  RH WIND       PRES   REMARKS
HAVRE          CLOUDY    64  44  48 W8        29.91S
LEWISTOWN      CLOUDY    58  43  57 SE5       30.06R HAZE
GREAT FALLS    CLOUDY    64  37  36 S12       30.03R HAZE
CUT BANK       CLOUDY    66  40  38 W13       30.01S HAZE
HELENA         CLOUDY    64  41  42 CALM      30.12R SMOKE
BUTTE          CLOUDY    50  45  83 SE5       30.25R
BOZEMAN        PTCLDY    58  47  66 CALM      30.16R

WESTERN MONTANA


CITY           SKY/WX    TMP DP  RH WIND       PRES   REMARKS
MISSOULA       CLOUDY    61  41  47 CALM      30.09S HAZE
KALISPELL      NOT AVBL

NORTH DAKOTA


CITY           SKY/WX    TMP DP  RH WIND       PRES   REMARKS
WILLISTON      CLEAR     65  62  90 S3        29.85S
DICKINSON      MOCLDY    63  56  78 S12       29.90S
MINOT          CLEAR     70  59  68 SW14      29.81F
BISMARCK       CLEAR     66  61  84 SW5       29.91F

SOUTHERN SASKATCHEWAN


CITY           SKY/WX    TMP DP  RH WIND       PRES   REMARKS
REGINA         PTCLDY    55  55 100 W5        29.82
ESTEVAN        MOCLDY    64  61  88 SW9       29.82F
SWIFT CURRENT  CLEAR     59  52  77 SW12      29.85S HAZE



USA.gov is the U.S. government's official web portal to all federal, state and local government web resources and services.